When you browse on this site, cookies collect data to enhance your experience and personalize the content and advertising you see.
Visit our Privacy Policy to learn more. By continuing to use the site, you agree to this use of cookies and data.
  • In Hungary
  • List of Countries
  • For 7 days
  • Water Temperature
  • Satellite Maps
  • Weather Map
  • News
  • Weather Widgets
  • user-avatar
    Login

    Hourly Weather Gerasimovo

    Today, 23 January, Wednesday

    Time Temperature Precipitation Wind Pressure Humidity
    00:00 -19°C° 0 mm 3 mps 747 mmHg 96%
    01:00 -21°C° 0 mm 3 mps 748 mmHg 97%
    02:00 -20°C° 0 mm 2 mps 748 mmHg 98%
    03:00 -20°C° 0 mm 2 mps 748 mmHg 98%
    04:00 -21°C° 0 mm 2 mps 748 mmHg 98%
    05:00 -23°C° 0 mm 2 mps 748 mmHg 99%
    06:00 -23°C° 0 mm 2 mps 748 mmHg 98%
    07:00 -23°C° 0 mm 2 mps 749 mmHg 97%
    08:00 -24°C° 0 mm 2 mps 749 mmHg 97%
    09:00 -21°C° 0 mm 2 mps 749 mmHg 94%
    10:00 -20°C° 0 mm 2 mps 749 mmHg 92%
    11:00 -21°C° 0 mm 3 mps 749 mmHg 90%
    12:00 -21°C° 0 mm 3 mps 749 mmHg 90%
    13:00 -19°C° 0 mm 3 mps 749 mmHg 91%
    14:00 -19°C° 0 mm 3 mps 749 mmHg 91%
    15:00 -19°C° 0 mm 3 mps 748 mmHg 93%
    16:00 -19°C° 0 mm 3 mps 748 mmHg 94%
    17:00 -21°C° 0 mm 3 mps 748 mmHg 95%
    18:00 -19°C° 0 mm 3 mps 748 mmHg 95%
    19:00 -18°C° 0 mm 3 mps 748 mmHg 95%
    20:00 -18°C° 0 mm 3 mps 748 mmHg 95%
    21:00 -17°C° 0 mm 3 mps 748 mmHg 95%
    22:00 -17°C° 0 mm 4 mps 748 mmHg 94%
    23:00 -17°C° 0 mm 4 mps 748 mmHg 94%

    Tomorrow, 24 January, Thursday

    Time Temperature Precipitation Wind Pressure Humidity
    00:00 -16°C° 0 mm 4 mps 747 mmHg 94%
    01:00 -16°C° 0 mm 4 mps 747 mmHg 94%
    02:00 -16°C° 0 mm 4 mps 747 mmHg 94%
    03:00 -16°C° 0 mm 4 mps 747 mmHg 94%
    04:00 -16°C° 0 mm 4 mps 746 mmHg 94%
    05:00 -16°C° 0 mm 4 mps 746 mmHg 94%
    06:00 -16°C° 0 mm 4 mps 746 mmHg 94%
    07:00 -16°C° 0 mm 4 mps 746 mmHg 94%
    08:00 -17°C° 0 mm 4 mps 746 mmHg 94%
    09:00 -16°C° 0.2 mm 4 mps 746 mmHg 94%
    10:00 -16°C° 0.2 mm 4 mps 745 mmHg 94%
    11:00 -16°C° 0.2 mm 4 mps 745 mmHg 94%
    12:00 -15°C° 0.2 mm 4 mps 746 mmHg 94%
    13:00 -13°C° 0.2 mm 3 mps 746 mmHg 93%
    14:00 -13°C° 0.2 mm 3 mps 746 mmHg 93%
    15:00 -13°C° 0 mm 3 mps 747 mmHg 93%
    16:00 -13°C° 0 mm 3 mps 747 mmHg 94%
    17:00 -12°C° 0 mm 2 mps 748 mmHg 95%
    18:00 -14°C° 0 mm 2 mps 748 mmHg 95%
    19:00 -16°C° 0 mm 2 mps 749 mmHg 95%
    20:00 -18°C° 0 mm 2 mps 749 mmHg 95%
    21:00 -19°C° 0 mm 2 mps 750 mmHg 96%
    22:00 -20°C° 0 mm 2 mps 750 mmHg 97%
    23:00 -21°C° 0 mm 2 mps 751 mmHg 98%

    Day after tomorrow, 25 January, Friday

    Time Temperature Precipitation Wind Pressure Humidity
    00:00 -21°C° 0 mm 2 mps 751 mmHg 98%
    01:00 -23°C° 0 mm 2 mps 752 mmHg 98%
    02:00 -23°C° 0 mm 2 mps 752 mmHg 98%
    03:00 -20°C° 0 mm 1 mps 753 mmHg 98%
    04:00 -21°C° 0 mm 1 mps 753 mmHg 98%
    05:00 -21°C° 0 mm 1 mps 753 mmHg 97%
    06:00 -21°C° 0 mm 1 mps 754 mmHg 98%
    07:00 -21°C° 0 mm 1 mps 754 mmHg 98%
    08:00 -21°C° 0 mm 1 mps 755 mmHg 98%
    09:00 -20°C° 0 mm 1 mps 755 mmHg 97%
    10:00 -18°C° 0 mm 1 mps 755 mmHg 95%
    11:00 -17°C° 0 mm 1 mps 756 mmHg 94%
    12:00 -17°C° 0 mm 1 mps 756 mmHg 94%
    13:00 -16°C° 0 mm 1 mps 756 mmHg 94%
    14:00 -16°C° 0 mm 1 mps 756 mmHg 95%
    15:00 -17°C° 0 mm 1 mps 756 mmHg 95%
    16:00 -18°C° 0 mm 1 mps 756 mmHg 96%
    17:00 -19°C° 0 mm 1 mps 756 mmHg 97%
    18:00 -19°C° 0 mm 1 mps 756 mmHg 97%
    19:00 -19°C° 0 mm 1 mps 757 mmHg 98%
    20:00 -20°C° 0 mm 1 mps 757 mmHg 98%
    21:00 -20°C° 0 mm 1 mps 757 mmHg 98%
    22:00 -20°C° 0 mm 1 mps 757 mmHg 98%
    23:00 -20°C° 0 mm 1 mps 757 mmHg 98%

    26 January, Saturday

    Time Temperature Precipitation Wind Pressure Humidity
    00:00 -20°C° 0 mm 1 mps 757 mmHg 98%
    01:00 -21°C° 0 mm 1 mps 757 mmHg 99%
    02:00 -21°C° 0 mm 1 mps 757 mmHg 99%
    03:00 -21°C° 0 mm 1 mps 757 mmHg 99%
    04:00 -21°C° 0 mm 1 mps 757 mmHg 99%
    05:00 -21°C° 0 mm 1 mps 756 mmHg 99%
    06:00 -21°C° 0 mm 1 mps 756 mmHg 99%
    07:00 -21°C° 0 mm 1 mps 756 mmHg 99%
    08:00 -24°C° 0 mm 2 mps 756 mmHg 99%
    09:00 -23°C° 0 mm 2 mps 756 mmHg 97%
    10:00 -21°C° 0 mm 2 mps 756 mmHg 96%
    11:00 -20°C° 0 mm 2 mps 756 mmHg 95%
    12:00 -20°C° 0 mm 2 mps 756 mmHg 94%
    13:00 -20°C° 0 mm 2 mps 756 mmHg 93%
    14:00 -19°C° 0 mm 2 mps 755 mmHg 93%
    15:00 -22°C° 0 mm 3 mps 755 mmHg 92%
    16:00 -22°C° 0 mm 3 mps 755 mmHg 91%
    17:00 -23°C° 0 mm 3 mps 755 mmHg 91%
    18:00 -23°C° 0 mm 3 mps 754 mmHg 90%
    19:00 -22°C° 0 mm 3 mps 754 mmHg 89%
    20:00 -23°C° 0 mm 4 mps 754 mmHg 89%
    21:00 -23°C° 0 mm 4 mps 754 mmHg 88%
    22:00 -23°C° 0 mm 4 mps 754 mmHg 87%
    23:00 -23°C° 0 mm 4 mps 753 mmHg 87%

    27 January, Sunday

    Time Temperature Precipitation Wind Pressure Humidity
    00:00 -23°C° 0 mm 4 mps 753 mmHg 86%
    01:00 -22°C° 0 mm 4 mps 753 mmHg 86%
    02:00 -22°C° 0 mm 4 mps 753 mmHg 86%
    03:00 -22°C° 0.1 mm 5 mps 752 mmHg 87%
    04:00 -22°C° 0.1 mm 5 mps 752 mmHg 87%
    05:00 -22°C° 0.1 mm 5 mps 752 mmHg 88%
    06:00 -21°C° 0.1 mm 5 mps 752 mmHg 88%
    07:00 -21°C° 0.1 mm 5 mps 752 mmHg 89%
    08:00 -21°C° 0.1 mm 5 mps 752 mmHg 89%
    09:00 -21°C° 0.1 mm 5 mps 752 mmHg 89%
    10:00 -20°C° 0.1 mm 5 mps 752 mmHg 89%
    11:00 -20°C° 0.1 mm 5 mps 751 mmHg 89%
    12:00 -20°C° 0.1 mm 5 mps 751 mmHg 89%
    13:00 -20°C° 0.1 mm 5 mps 751 mmHg 89%
    14:00 -20°C° 0.1 mm 5 mps 751 mmHg 89%
    15:00 -20°C° 0.1 mm 5 mps 751 mmHg 90%
    16:00 -19°C° 0.1 mm 4 mps 751 mmHg 90%
    17:00 -19°C° 0.1 mm 4 mps 751 mmHg 91%
    18:00 -19°C° 0.1 mm 4 mps 751 mmHg 91%
    19:00 -19°C° 0.1 mm 4 mps 751 mmHg 91%
    20:00 -19°C° 0.1 mm 4 mps 751 mmHg 91%
    21:00 -20°C° 0.1 mm 4 mps 751 mmHg 91%
    22:00 -20°C° 0.1 mm 4 mps 751 mmHg 91%
    23:00 -20°C° 0.1 mm 4 mps 751 mmHg 91%

    28 January, Monday

    Time Temperature Precipitation Wind Pressure Humidity
    00:00 -20°C° 0.1 mm 4 mps 751 mmHg 91%
    01:00 -22°C° 0.1 mm 4 mps 751 mmHg 92%
    02:00 -22°C° 0.1 mm 4 mps 752 mmHg 92%
    03:00 -23°C° 0 mm 4 mps 752 mmHg 92%
    04:00 -22°C° 0 mm 3 mps 752 mmHg 93%
    05:00 -23°C° 0 mm 3 mps 752 mmHg 94%
    06:00 -24°C° 0 mm 3 mps 752 mmHg 94%
    07:00 -25°C° 0 mm 3 mps 752 mmHg 95%
    08:00 -25°C° 0 mm 3 mps 752 mmHg 95%
    09:00 -25°C° 0 mm 3 mps 753 mmHg 94%
    10:00 -25°C° 0 mm 3 mps 753 mmHg 93%
    11:00 -24°C° 0 mm 3 mps 753 mmHg 92%
    12:00 -24°C° 0 mm 3 mps 753 mmHg 92%
    13:00 -24°C° 0 mm 3 mps 753 mmHg 93%
    14:00 -25°C° 0 mm 3 mps 754 mmHg 93%
    15:00 -26°C° 0 mm 3 mps 754 mmHg 94%
    16:00 -27°C° 0 mm 3 mps 754 mmHg 95%
    17:00 -27°C° 0 mm 2 mps 754 mmHg 96%
    18:00 -28°C° 0 mm 2 mps 754 mmHg 97%
    19:00 -28°C° 0 mm 2 mps 755 mmHg 97%
    20:00 -29°C° 0 mm 2 mps 755 mmHg 97%
    21:00 -29°C° 0 mm 2 mps 755 mmHg 98%
    22:00 -29°C° 0 mm 2 mps 755 mmHg 98%
    23:00 -30°C° 0 mm 2 mps 756 mmHg 98%
    Show more